GFSNW_sfc_30mbdewp_279.txt.gz
Dewpoint
40 40 40 39 39 36 37 31 23 22 26 29 26 27 30 34 30 34 29 28 26 23 25 24 23 22 20 24 26 23 23 20 20 23 25 25 23 21 20 19 18 21 23 22
41 41 40 41 40 38 38 30 23 24 25 24 26 30 22 30 30 30 34 32 29 28 27 25 27 26 28 28 26 24 24 22 19 22 24 24 23 23 22 21 20 20 20 19
41 41 40 40 40 38 37 33 22 17 17 27 27 24 22 22 27 32 31 33 34 34 31 30 29 28 29 28 28 31 28 23 20 19 20 23 22 22 23 21 20 20 20 20
40 41 40 40 41 40 38 32 23 19 17 16 19 18 23 25 25 27 31 29 28 29 29 32 32 31 31 31 30 28 28 24 24 23 23 24 23 23 23 22 22 20 21 20
41 41 41 41 40 41 37 29 25 26 22 19 12 11 12 14 25 19 21 24 24 27 27 29 28 33 31 30 33 28 29 26 25 25 26 26 24 24 23 23 22 22 22 21
40 41 42 41 41 40 35 36 31 30 20 19 15 9 6 19 17 18 18 18 19 21 23 34 34 36 35 37 35 34 30 28 25 22 24 27 25 26 25 24 24 23 21 23
39 40 41 40 41 41 40 36 34 28 18 16 15 13 12 11 9 12 14 17 17 19 23 31 36 35 35 35 36 36 32 32 31 27 25 22 21 25 26 26 25 25 24 24
38 38 40 41 41 42 41 38 34 29 21 18 16 14 13 14 14 14 14 15 18 23 30 26 27 31 31 33 35 35 34 32 30 27 25 23 21 24 27 27 26 27 26 25
40 40 40 41 40 41 42 40 39 33 26 19 16 21 17 16 16 14 10 14 20 32 30 28 21 24 28 27 29 34 34 35 31 29 25 22 22 23 27 29 25 28 29 28
38 37 37 39 40 42 41 39 40 35 27 25 22 18 17 17 18 17 15 13 17 21 22 23 22 20 26 27 26 25 27 28 26 28 27 24 24 25 28 22 20 25 27 28
36 36 37 36 39 41 41 39 41 36 30 27 25 22 22 21 20 20 17 15 17 24 23 21 21 22 25 23 30 26 27 26 26 28 26 23 27 26 24 24 23 24 26 28
39 37 35 34 37 38 41 38 40 40 34 31 32 30 28 26 25 23 23 19 17 18 20 24 24 23 24 25 20 30 27 28 27 27 26 27 27 27 27 25 25 24 27 26
39 37 38 36 35 36 39 40 40 39 33 32 32 29 29 30 30 29 25 23 22 22 24 25 25 24 25 20 18 18 30 32 28 28 32 29 28 26 24 24 25 25 27 24
38 39 38 38 37 37 38 37 40 37 33 26 24 25 25 27 25 27 29 27 25 26 29 28 25 23 24 26 27 25 24 24 23 26 27 31 29 28 25 25 24 24 24 21
39 40 39 38 38 38 39 39 38 39 32 26 26 28 26 27 26 27 27 29 30 29 27 27 24 24 25 25 26 24 22 22 23 22 24 29 33 29 29 25 23 22 21 20
39 40 39 38 38 38 34 28 37 39 37 30 21 29 24 26 26 25 24 26 30 30 29 26 29 27 26 23 18 20 19 20 24 27 28 27 27 25 25 25 24 23 22 18
40 39 38 39 39 38 30 26 33 38 38 29 22 23 31 32 33 32 31 31 31 32 30 29 28 27 30 28 22 15 15 16 18 23 28 30 28 26 23 22 21 20 18 17
39 38 37 39 39 38 36 37 37 36 32 30 23 21 27 32 28 28 33 31 32 32 30 32 29 28 30 23 12 11 13 16 20 21 24 25 26 25 23 22 21 19 18 18
37 38 38 37 35 33 35 38 39 39 33 25 26 20 19 31 29 30 31 31 27 32 28 28 30 12 7 12 11 12 14 15 17 21 22 22 23 22 22 22 20 18 18 18
37 36 33 29 34 37 37 36 33 32 31 30 26 29 24 25 23 25 27 30 26 24 24 21 14 10 14 14 14 15 15 17 19 18 19 20 19 19 19 19 19 18 17 17
35 31 30 35 37 35 32 27 27 27 25 25 26 26 19 23 21 21 27 25 25 20 18 14 11 7 10 14 13 15 16 17 18 19 20 20 17 16 16 16 17 16 15 14
34 34 35 33 27 24 20 19 21 20 18 21 21 19 20 22 28 25 26 22 23 13 18 10 5 9 12 12 12 14 15 15 15 16 16 16 16 16 15 14 14 14 15 15
34 28 23 23 22 14 14 13 13 15 19 21 18 13 18 22 28 25 23 17 14 19 9 6 8 10 12 12 12 13 15 15 14 14 15 15 14 15 14 13 14 14 14 14
22 19 16 19 18 17 17 16 15 16 17 16 14 13 17 26 22 19 16 15 13 7 3 3 8 10 11 12 12 12 12 13 13 13 13 13 13 13 14 14 15 14 13 14
20 21 14 18 19 19 18 17 14 14 14 12 10 14 17 18 15 13 12 8 3 4 2 7 10 11 11 11 11 11 11 11 11 12 12 12 12 11 11 13 14 13 13 12
22 20 19 18 18 16 15 12 11 11 10 11 12 15 15 11 9 5 4 3 0 3 7 10 11 11 11 11 11 11 11 10 10 10 10 10 10 9 10 11 12 12 11 10
20 19 20 18 17 15 13 8 8 8 12 13 13 6 7 11 4 2 4 2 5 8 10 11 12 11 11 12 11 11 11 10 10 10 10 11 11 10 9 8 9 10 9 9

GFSNW_sfc_30mbdewp_282.txt.gz
Dewpoint
41 41 40 40 39 40 39 32 24 26 26 23 24 24 28 27 25 30 30 29 28 28 32 31 28 25 25 27 27 23 23 22 23 24 25 25 24 22 22 19 19 19 21 21
42 41 40 40 40 40 39 31 26 26 26 20 21 23 19 19 23 27 29 28 29 27 31 31 33 25 28 28 28 28 28 23 21 22 24 24 23 23 22 21 20 20 19 20
39 39 39 39 41 40 39 31 24 18 19 20 19 20 15 13 16 26 28 27 25 24 24 28 32 31 29 30 31 34 32 26 21 19 21 24 22 23 23 21 20 19 20 22
39 41 38 37 39 41 41 31 27 20 17 17 20 20 17 14 10 27 24 26 21 23 21 21 24 31 31 34 32 33 34 29 26 26 26 25 23 22 23 22 22 21 21 21
39 42 39 38 39 40 37 30 28 25 21 21 19 18 16 11 12 11 13 14 14 20 23 23 22 25 24 28 34 31 35 30 28 25 26 26 24 24 23 23 23 23 22 22
38 41 41 40 40 41 37 34 35 31 25 19 17 17 13 12 13 12 11 12 13 14 17 17 19 21 28 30 29 32 32 31 27 23 27 26 25 26 26 24 24 23 22 23
39 39 39 39 39 40 40 35 34 29 22 20 17 15 14 13 15 14 15 13 13 17 20 23 27 27 24 27 32 34 32 32 31 26 28 21 26 25 25 24 24 25 24 24
39 39 38 37 37 38 40 38 33 30 24 21 19 17 15 15 17 14 15 14 14 14 24 24 21 20 30 30 31 34 34 33 29 26 26 27 29 25 24 25 25 27 25 25
40 40 39 39 35 36 40 37 38 32 27 22 21 18 16 18 17 17 15 16 15 16 23 24 21 18 18 23 28 35 34 33 30 29 23 21 26 25 27 28 23 27 28 27
39 40 41 40 38 35 37 39 38 33 28 27 24 20 20 18 20 19 18 18 19 18 16 20 17 18 21 20 21 23 27 29 27 27 24 25 28 27 29 26 24 25 27 29
40 39 40 40 39 37 36 36 40 35 30 30 28 24 22 22 22 20 21 21 16 19 22 21 19 21 21 22 23 24 23 26 26 28 26 23 27 27 24 25 24 25 27 28
40 39 40 40 39 38 37 34 40 41 34 30 34 34 33 30 27 25 25 23 21 19 17 19 20 17 17 20 18 28 22 25 23 25 27 31 27 28 28 27 25 25 26 25
40 38 38 39 38 38 38 36 37 38 33 31 32 30 31 33 32 30 25 25 24 20 22 24 24 19 23 21 18 18 28 31 24 27 26 28 28 30 28 26 25 27 26 22
39 37 38 38 38 38 38 37 37 37 32 26 25 28 27 30 30 30 30 29 28 25 25 25 24 21 21 21 26 23 24 25 24 23 26 28 29 30 29 28 24 25 23 21
39 39 39 38 38 38 39 39 37 38 32 25 27 30 25 27 27 26 26 28 28 28 26 26 23 23 23 24 23 22 21 18 20 21 23 23 26 28 28 25 26 23 20 18
40 40 39 38 39 38 37 29 38 39 37 29 22 29 24 30 33 30 25 26 27 30 28 26 26 25 24 23 20 12 11 12 14 17 20 23 25 29 27 25 25 23 22 19
40 38 37 38 39 39 32 29 35 37 38 28 21 21 30 31 33 32 33 33 32 29 29 27 25 23 28 27 10 10 10 11 12 15 17 19 22 22 26 23 23 23 22 21
37 36 38 38 39 38 36 38 39 39 33 30 21 20 25 31 29 28 33 31 32 31 29 30 27 21 15 8 9 9 10 12 13 13 16 18 22 25 23 23 21 19 18 18
35 36 38 37 35 32 34 37 37 38 34 25 24 21 20 30 26 28 30 32 26 31 23 19 17 11 6 9 9 9 11 11 12 15 17 19 21 22 22 21 20 18 18 18
34 34 31 29 32 36 37 35 32 31 31 30 24 27 22 20 21 22 22 28 26 21 19 20 13 9 12 13 12 13 13 13 14 12 12 16 18 17 17 18 18 18 17 16
33 30 28 33 35 33 31 25 22 23 24 23 25 21 16 19 19 20 24 24 25 15 14 11 10 6 8 12 12 13 14 14 15 15 16 17 17 16 15 15 15 15 15 14
32 32 35 33 28 22 17 15 18 18 18 21 18 17 16 19 25 24 26 21 20 10 15 7 4 7 11 11 11 12 13 14 14 15 14 14 14 14 14 14 14 14 15 15
33 30 26 23 20 10 13 10 11 13 17 19 15 10 15 19 24 24 21 14 12 16 7 6 6 9 10 11 11 11 13 13 13 13 14 14 13 14 14 13 14 14 13 14
20 19 14 18 17 17 18 17 17 17 15 14 12 11 15 21 19 18 13 14 9 3 1 3 7 9 11 11 11 10 10 11 11 11 12 12 12 12 13 13 14 13 13 13
20 21 14 18 20 20 18 16 14 14 14 11 8 11 13 14 13 13 12 5 3 3 1 6 9 11 11 10 10 10 10 10 10 10 10 10 11 10 10 12 13 13 12 12
22 20 19 18 18 16 15 11 10 11 10 12 11 11 11 9 5 3 3 2 -0 3 7 10 11 10 11 11 11 11 11 10 10 11 11 10 10 9 9 10 10 10 11 11
20 18 20 19 17 15 10 7 8 9 12 12 12 4 5 8 3 2 4 1 5 7 10 12 11 11 11 11 12 11 12 11 11 11 11 10 10 9 8 8 9 9 9 8

GFSNW_sfc_30mbdewp_285.txt.gz
Dewpoint
40 39 40 40 38 37 41 35 26 29 28 22 23 20 23 23 19 19 28 26 26 22 23 22 24 19 26 31 30 24 24 21 21 23 25 25 24 22 21 17 18 19 18 16
40 41 41 40 38 37 38 31 30 31 28 18 18 22 19 16 15 16 26 22 26 22 18 19 20 24 29 30 32 28 24 23 24 23 24 24 24 24 23 22 22 19 16 17
40 40 40 40 39 40 39 31 25 26 23 23 18 19 17 17 17 20 24 21 21 16 15 14 21 23 26 29 30 35 34 29 26 22 23 23 22 23 23 22 20 18 20 20
40 40 39 38 38 38 39 31 27 26 21 17 18 20 19 17 15 20 17 19 13 14 15 17 17 18 20 24 32 31 35 29 30 31 30 30 24 23 23 22 21 20 19 20
39 40 40 40 38 38 37 31 29 31 27 26 21 20 17 15 15 13 13 12 14 14 14 16 17 18 18 22 28 28 32 30 30 29 31 31 31 26 24 24 23 22 22 22
39 40 41 40 40 38 32 35 34 30 24 25 23 21 17 15 15 16 17 16 15 13 14 16 17 18 18 20 20 21 28 31 30 26 30 30 27 29 28 25 24 24 22 23
40 40 40 40 40 39 36 35 34 28 21 25 22 19 17 16 16 15 17 16 15 14 15 17 17 21 22 23 24 24 27 29 30 26 28 21 25 26 29 27 25 25 24 24
40 41 40 40 39 39 37 36 33 29 23 26 25 21 19 18 17 18 17 17 17 17 17 16 19 20 23 28 28 25 30 28 28 25 25 25 26 26 25 23 22 26 25 25
40 41 40 40 39 40 39 36 37 31 26 23 25 25 20 17 17 18 18 19 19 20 19 19 17 16 20 19 19 29 32 31 28 28 23 21 24 27 27 27 22 27 28 27
41 41 41 40 38 40 40 36 38 34 27 28 25 23 20 20 20 19 21 20 21 20 15 16 17 16 22 15 18 20 21 27 25 26 24 24 29 31 30 24 22 26 27 26
41 42 40 39 38 39 40 37 38 35 30 30 29 28 25 23 22 20 21 22 18 17 17 19 16 17 17 15 20 23 20 20 23 25 24 21 32 31 27 29 30 27 27 29
42 42 41 39 40 38 39 36 37 38 33 30 33 33 33 32 31 27 26 23 23 22 16 15 18 15 17 15 15 27 20 25 21 23 21 31 32 30 31 30 31 30 29 25
41 41 39 40 38 38 38 38 36 36 30 29 32 31 31 33 33 33 27 25 25 23 23 23 22 19 20 16 18 21 23 29 24 25 24 21 29 30 30 29 29 31 27 22
40 39 39 38 38 38 38 38 37 35 32 26 24 29 29 30 31 32 31 29 28 28 28 25 22 19 20 19 22 20 16 20 16 24 19 17 26 23 25 27 27 29 30 22
40 40 38 37 38 39 39 38 36 36 30 22 24 27 29 28 29 28 30 30 29 29 27 24 20 23 22 20 22 8 12 10 9 10 12 14 14 18 21 24 24 25 28 25
40 39 38 38 40 39 37 29 37 37 35 27 20 24 23 31 32 32 27 29 28 29 27 25 25 24 20 18 12 10 10 11 11 10 11 15 16 18 21 22 23 24 27 26
40 39 37 38 40 38 32 29 35 39 37 27 20 18 23 31 32 32 32 32 28 29 29 26 25 24 26 9 2 7 7 8 9 12 11 10 14 14 17 22 23 23 25 24
38 36 36 39 39 38 36 37 37 38 34 30 20 17 21 31 27 24 30 29 31 31 28 24 16 14 11 5 7 7 8 9 8 9 12 13 15 18 21 23 22 20 19 20
36 35 36 35 33 30 31 36 38 37 33 24 23 20 18 23 20 20 27 30 25 25 18 16 13 7 3 7 8 8 9 9 10 11 10 11 14 18 19 20 19 17 17 17
34 33 29 26 31 35 35 34 30 30 31 28 23 20 17 16 16 19 18 22 24 15 16 18 9 6 9 11 11 11 11 11 12 9 7 9 12 14 14 15 17 16 15 15
30 27 28 31 35 31 26 18 19 18 18 20 21 17 12 16 16 16 20 22 20 10 12 9 6 3 7 11 10 11 12 12 12 13 13 13 13 12 12 13 14 14 15 14
31 31 34 31 22 14 10 10 12 13 15 17 14 13 13 15 22 21 24 18 13 8 11 3 1 6 10 10 10 11 11 11 11 12 12 12 13 13 13 13 13 13 14 14
32 28 23 19 15 9 10 8 7 10 14 13 11 9 10 13 20 20 16 11 10 12 5 3 5 8 9 10 10 10 11 11 11 10 11 12 12 12 12 12 13 13 13 13
19 18 14 15 14 15 16 14 14 15 14 11 9 9 11 14 15 15 11 12 4 -1 -1 1 6 9 10 11 11 10 9 10 10 10 10 10 10 10 11 12 13 12 11 12
17 16 15 17 19 18 16 13 8 10 8 8 6 8 10 10 8 6 6 1 -0 1 -0 5 8 10 10 10 10 10 9 10 10 10 10 10 10 9 9 10 12 12 12 12
17 17 18 17 16 13 12 7 6 7 7 9 9 7 7 7 3 1 1 -1 -2 1 5 9 11 9 10 10 11 11 11 11 11 11 10 10 9 9 9 10 9 9 10 10
17 17 19 18 16 13 8 5 6 8 9 9 8 3 4 4 0 -0 2 -1 3 5 8 10 11 10 10 11 11 11 11 10 10 10 10 10 11 11 10 8 9 9 9 9

GFSNW_sfc_30mbdewp_288.txt.gz
Dewpoint
40 40 40 40 39 39 37 36 24 31 31 21 22 19 21 21 15 15 23 22 20 20 16 15 13 19 23 28 29 23 30 24 21 23 25 25 22 21 21 18 17 19 16 14
40 39 40 40 40 39 37 31 30 33 29 15 16 20 20 18 15 17 20 18 21 21 15 14 16 19 25 27 26 26 28 29 23 23 24 25 23 23 21 21 21 17 16 15
40 40 40 40 40 40 37 32 24 26 24 24 22 22 20 18 20 18 21 19 22 15 14 15 15 16 19 23 23 32 30 30 26 20 20 25 23 23 23 21 19 18 19 18
39 41 40 40 39 40 37 31 26 28 21 21 23 24 24 21 17 17 17 15 16 14 14 13 16 14 15 15 25 29 27 25 30 27 29 24 23 23 23 22 21 19 19 20
37 40 40 40 40 40 33 26 25 29 27 26 26 23 22 21 18 16 14 15 16 17 14 14 14 14 13 13 21 23 27 21 30 30 32 31 29 30 24 24 23 22 22 21
38 40 41 41 41 40 34 34 34 28 23 24 23 23 23 17 18 17 16 16 17 15 14 15 15 15 15 15 14 16 22 25 29 26 31 30 28 30 28 25 24 24 22 22
38 40 41 41 40 40 39 36 34 26 19 23 22 25 27 24 20 18 18 18 17 17 18 18 17 17 16 16 17 20 22 24 24 24 29 21 26 29 30 28 28 26 24 24
39 40 41 40 40 40 39 39 33 28 21 22 23 26 26 25 21 18 17 18 19 19 20 17 15 18 18 22 26 29 27 24 23 24 23 28 29 28 28 28 25 28 26 26
41 42 41 41 40 39 39 39 38 32 24 21 26 26 26 23 19 18 19 21 22 22 19 17 13 11 17 18 17 23 30 27 25 23 22 19 23 29 32 32 26 30 29 27
42 41 41 41 40 39 40 39 39 34 26 27 27 24 26 25 21 21 21 21 22 21 18 16 14 15 17 12 14 17 19 20 20 23 22 23 28 29 31 26 22 28 31 28
41 40 41 41 40 39 38 38 39 35 28 26 27 29 27 26 25 22 23 24 19 20 14 16 14 15 15 14 16 20 19 18 18 17 18 14 29 26 20 23 27 28 28 30
40 40 40 40 38 39 39 36 39 40 33 28 31 30 31 31 30 28 29 24 25 25 18 15 17 14 15 16 13 18 19 21 19 22 21 22 27 24 26 23 25 25 26 29
40 39 38 39 38 38 40 37 38 36 31 27 29 27 31 33 33 33 28 26 26 25 24 24 21 17 21 12 14 20 11 13 17 16 15 16 21 16 16 20 22 24 26 26
40 39 38 38 38 39 39 36 38 33 31 24 23 29 25 28 30 33 33 30 29 30 29 25 21 18 19 17 20 9 6 8 6 11 12 8 23 12 12 15 19 19 23 25
40 39 38 37 38 40 38 37 36 35 30 23 23 25 27 28 31 31 31 31 30 29 27 25 20 22 20 20 11 4 9 7 4 4 6 9 9 9 11 14 18 18 21 23
40 39 37 36 38 40 33 28 37 36 35 27 20 23 22 29 30 31 31 29 29 30 28 25 27 25 24 16 6 8 7 9 10 7 10 12 11 11 14 13 14 18 23 24
39 38 37 36 40 38 31 28 36 38 38 27 20 18 19 29 29 28 27 31 28 29 28 25 18 13 13 6 1 6 7 7 8 8 9 6 9 9 11 14 17 23 22 22
38 36 36 38 38 38 36 37 36 38 34 28 19 17 18 25 20 18 25 27 29 24 20 18 13 9 9 3 5 6 7 8 7 8 10 10 10 11 15 17 20 20 18 18
35 35 35 34 31 27 29 35 37 37 32 24 22 17 16 18 15 18 20 25 20 21 14 13 7 4 2 6 7 7 8 7 8 9 7 7 8 10 12 13 16 15 15 16
34 31 27 23 29 35 35 29 31 27 27 21 18 14 12 14 14 16 16 18 20 11 15 14 5 5 9 11 11 10 10 10 10 6 5 7 7 10 11 11 13 14 14 15
28 25 25 30 32 25 16 16 15 13 15 16 16 14 10 12 13 14 18 20 15 9 10 7 2 2 6 10 10 10 11 10 10 10 11 11 11 11 10 10 12 13 14 13
29 30 33 26 15 11 6 6 7 10 10 13 11 11 12 11 18 17 18 14 11 7 9 0 -0 5 9 9 10 10 11 10 10 11 10 11 11 11 11 11 11 12 13 13
30 25 22 14 13 11 11 10 8 9 12 9 8 7 8 10 16 16 12 8 8 8 3 1 3 7 8 10 10 10 11 11 10 10 11 10 10 11 11 11 12 13 13 14
19 18 14 12 13 14 14 13 13 12 11 7 6 7 9 10 12 10 8 9 0 -3 -3 -1 4 8 9 10 10 10 9 10 10 10 10 9 9 9 10 11 12 12 11 13
17 15 14 15 18 16 15 11 6 8 5 6 5 6 7 7 5 1 1 -2 -2 -1 -1 3 7 9 9 9 9 9 9 9 9 10 9 9 9 9 9 10 10 11 12 12
16 15 15 14 15 12 9 5 3 5 6 6 6 4 5 5 1 -0 -1 -2 -3 0 3 7 9 9 8 9 9 10 10 10 9 9 10 10 10 9 9 9 9 9 10 9
15 15 16 15 13 11 7 5 5 7 7 7 5 2 3 2 -1 -2 0 -2 1 3 5 8 9 9 9 10 10 11 11 10 9 8 9 9 10 11 10 8 9 9 9 9

GFSNW_sfc_30mbdewp_294.txt.gz
Dewpoint
38 38 38 39 40 42 38 32 22 25 29 13 20 18 20 22 21 20 17 21 20 15 16 16 14 12 12 16 17 15 17 21 19 26 27 23 21 20 18 16 18 17 16 12
39 39 39 40 40 41 38 30 27 31 26 16 16 19 20 22 21 23 19 17 17 18 17 14 15 14 14 18 18 14 19 19 14 24 29 29 23 21 20 20 19 18 15 14
40 39 39 41 41 41 37 30 21 23 23 23 20 19 19 20 22 23 22 18 20 17 16 16 15 14 15 17 17 20 24 21 19 15 18 24 26 24 22 19 17 17 17 15
39 40 41 41 41 41 36 30 23 27 18 20 21 22 22 20 21 22 18 17 16 18 15 15 12 13 15 16 17 24 19 14 14 16 17 19 22 25 25 21 20 17 17 18
38 41 41 41 41 40 35 29 27 29 24 22 21 20 19 20 20 23 20 18 20 20 18 16 15 16 16 16 15 18 20 11 16 14 17 19 21 26 28 26 22 21 21 21
39 41 40 40 40 40 37 36 34 29 22 20 20 18 18 19 22 20 23 21 22 18 16 18 19 20 19 19 19 18 18 15 17 14 19 26 22 21 26 22 21 25 23 25
40 39 41 40 39 40 40 37 35 27 19 19 19 20 20 21 22 22 23 23 18 19 21 22 20 19 25 26 25 24 19 18 18 15 21 16 21 22 24 19 19 20 20 20
39 40 39 39 40 40 40 39 35 28 21 21 21 21 21 22 21 21 21 20 20 22 21 18 13 9 10 16 16 21 23 19 16 17 18 18 16 17 17 20 16 17 19 18
39 41 42 39 38 39 40 39 39 33 25 19 21 22 22 20 21 21 20 22 24 23 18 17 10 7 13 10 13 15 14 21 18 18 13 9 9 14 20 23 14 15 16 15
41 41 40 38 38 39 40 39 39 34 27 25 25 23 23 26 24 22 21 23 24 22 15 11 10 10 14 10 12 14 10 10 13 15 15 11 11 17 20 8 8 13 14 15
40 41 40 38 37 38 39 37 40 36 30 27 28 27 25 25 24 22 22 21 20 23 15 13 12 12 12 13 14 11 6 6 7 9 10 7 12 11 6 10 12 13 13 17
41 40 39 38 37 38 38 38 40 40 34 30 32 32 33 31 28 27 27 23 25 26 21 17 15 13 14 14 11 9 5 4 3 8 9 13 9 11 12 9 9 10 13 15
39 38 38 38 37 37 39 38 37 38 29 26 24 21 29 31 32 31 27 26 30 28 30 25 21 15 20 13 7 4 3 5 5 3 11 3 9 10 6 8 8 10 11 13
38 39 38 38 37 37 41 36 38 32 29 23 21 25 24 27 29 31 32 30 32 32 30 25 22 19 22 8 4 2 3 3 1 1 3 2 15 4 6 7 8 9 11 13
39 39 38 37 36 37 37 35 34 34 31 23 23 25 24 24 24 25 28 30 30 26 26 24 20 18 15 9 4 3 7 4 0 -0 3 5 4 6 6 7 8 9 11 13
40 39 37 36 35 39 33 28 37 38 37 28 20 21 22 21 21 22 26 30 29 29 26 17 16 18 16 8 4 6 7 7 8 5 6 7 6 6 6 8 9 10 14 15
38 37 35 35 36 37 30 27 34 38 38 29 20 17 17 18 19 16 19 28 23 23 19 14 12 11 11 5 1 4 7 7 7 6 7 3 4 5 7 8 10 11 13 15
36 34 34 35 40 38 34 35 36 39 32 25 19 16 15 15 13 11 18 23 20 17 16 13 6 4 4 1 5 6 7 7 4 5 7 6 6 6 6 8 8 9 10 12
34 33 35 32 29 26 28 34 37 30 28 22 16 13 8 13 11 14 15 17 14 14 4 5 2 -1 0 5 6 6 7 6 6 6 5 4 4 4 6 7 7 8 9 11
32 29 24 23 27 32 31 24 26 16 13 12 12 8 9 10 10 11 12 17 13 8 11 4 1 2 6 9 8 8 8 8 8 4 2 4 3 5 6 7 9 9 10 11
29 27 24 28 26 19 12 13 9 7 9 9 9 10 7 9 10 10 12 12 11 7 6 -0 -2 -1 5 8 7 8 8 8 8 8 8 7 7 7 7 8 9 10 11 11
30 30 32 21 13 10 8 7 6 8 8 7 7 6 6 7 11 11 12 11 9 5 4 -2 -2 2 7 8 7 8 9 9 8 9 8 8 8 8 8 8 9 11 11 12
25 21 18 12 12 11 10 9 9 10 9 5 5 3 5 7 10 9 8 8 6 3 -1 -3 0 5 7 8 8 8 9 8 8 8 8 8 8 8 9 8 10 11 11 12
17 15 13 12 12 12 11 11 11 11 7 5 2 3 5 4 6 4 6 4 3 -1 -3 -3 2 5 7 8 8 8 7 8 7 7 8 8 8 8 9 9 10 10 10 12
16 15 13 13 13 12 11 9 6 4 3 4 3 2 2 3 4 2 4 3 -3 -3 -4 1 4 6 8 8 8 8 8 8 7 7 7 8 9 9 8 9 9 9 10 10
14 13 13 11 13 11 7 4 2 2 4 2 2 1 3 1 -1 0 -4 -3 -6 -3 1 4 7 7 8 8 9 9 10 9 8 8 8 8 8 8 9 9 9 9 9 8
14 13 11 11 10 9 7 4 3 3 5 4 1 2 -0 1 -1 -3 -1 -3 -1 2 4 6 7 7 8 9 9 10 10 9 9 9 8 8 8 8 8 7 9 9 9 9

GFSNW_sfc_30mbdewp_297.txt.gz
Dewpoint
39 39 39 40 41 41 38 32 20 28 27 17 19 15 18 22 21 22 20 19 20 15 16 17 15 13 13 15 18 14 19 18 14 18 23 29 21 19 19 16 17 17 14 11
41 40 40 40 40 40 38 30 27 29 25 18 18 19 18 21 20 21 22 20 18 19 17 14 15 15 15 16 17 16 19 16 10 20 28 29 25 22 19 18 16 16 14 13
41 41 40 39 40 40 36 30 21 23 22 22 21 19 16 17 19 22 23 21 20 17 17 16 15 15 16 17 18 19 25 18 15 13 18 22 20 23 25 18 15 14 15 15
39 40 40 40 40 40 37 30 23 27 19 21 22 21 19 18 17 22 23 18 17 20 16 16 14 15 17 18 19 22 19 12 12 11 13 14 19 21 23 23 24 16 15 18
39 40 40 40 40 40 36 30 28 30 25 23 21 19 17 18 18 20 18 19 20 21 18 17 16 18 17 18 18 17 18 11 14 11 14 16 15 16 23 26 26 27 24 23
40 39 42 42 40 40 35 36 35 29 23 21 20 19 20 20 21 18 21 21 21 18 17 20 21 21 23 23 20 19 18 16 14 11 17 20 8 12 13 13 12 16 12 15
39 41 42 41 40 39 39 37 35 28 20 20 20 21 21 21 21 21 21 21 20 19 22 22 19 23 25 24 25 24 18 17 16 12 18 6 15 15 16 12 10 11 11 12
41 41 41 41 39 38 39 39 36 30 22 22 21 22 20 21 21 20 21 20 20 23 21 16 10 13 12 14 15 14 19 20 14 14 13 15 12 11 10 10 9 11 9 10
41 41 41 40 38 37 39 39 39 34 26 18 21 23 22 21 20 19 19 21 25 23 17 13 8 6 11 8 12 13 9 16 17 15 10 6 10 11 16 19 10 9 10 9
40 41 40 37 38 35 38 38 39 35 28 27 24 23 23 25 22 20 21 23 22 23 15 11 10 9 13 10 10 8 7 5 8 10 10 8 8 14 14 3 5 9 10 10
39 37 38 37 37 37 38 37 39 36 31 30 28 27 25 24 23 20 21 20 20 22 16 14 14 12 12 13 9 7 4 3 5 7 7 5 10 7 2 6 9 10 10 11
38 38 38 37 37 36 36 37 40 40 34 30 31 32 32 31 29 27 27 23 24 26 21 18 16 14 12 12 8 6 3 3 3 6 7 11 9 9 11 9 7 8 10 10
39 38 38 37 37 36 35 38 37 38 29 25 23 21 28 31 31 30 26 25 28 28 30 25 20 15 17 10 4 3 3 4 5 3 4 2 11 5 4 6 7 8 9 11
38 38 39 36 36 36 35 37 38 32 29 23 20 25 25 27 28 30 31 30 28 31 30 24 22 18 14 7 4 2 3 3 1 1 2 2 12 2 5 6 7 8 9 10
38 38 38 37 35 35 38 36 34 35 28 22 22 25 24 24 21 22 26 28 28 27 23 22 14 16 11 7 3 2 7 3 -0 -1 2 5 3 5 6 7 6 8 9 10
39 39 36 35 35 36 35 29 37 38 37 27 20 21 21 19 17 18 22 29 27 28 19 16 15 17 15 6 3 5 6 8 9 4 7 7 7 6 5 6 7 9 11 11
38 36 35 35 36 37 31 27 34 38 38 28 20 17 17 16 17 15 17 26 20 20 17 14 12 10 10 2 -0 4 6 6 6 6 6 3 4 5 6 7 8 8 8 10
36 34 34 37 39 37 35 33 36 38 31 26 18 16 12 14 11 8 16 18 16 13 14 10 7 5 2 -1 3 5 6 6 3 5 6 5 4 4 4 6 7 7 7 9
34 33 33 32 28 26 28 34 31 25 26 20 14 11 7 11 10 13 13 16 14 11 3 4 3 -0 -1 4 5 5 6 5 5 6 3 3 3 4 5 5 6 6 7 8
32 29 23 23 26 31 30 22 22 13 10 9 11 6 7 8 9 9 10 13 11 8 8 2 0 1 5 7 7 7 7 7 7 4 3 3 3 4 4 5 7 8 9 9
29 26 23 28 25 19 13 14 9 6 8 8 8 8 7 8 8 8 9 9 8 6 5 1 -1 -2 4 8 7 9 9 8 8 8 7 7 6 5 5 5 7 8 10 10
30 31 32 21 13 10 8 8 6 8 9 6 7 7 5 5 9 8 9 9 8 4 4 2 -3 2 7 7 7 8 9 8 8 8 7 7 7 7 7 6 7 8 11 12
25 22 20 13 11 11 10 9 9 10 8 5 5 3 2 5 8 6 6 6 3 6 -0 -4 -1 4 7 8 8 8 9 9 8 7 8 8 8 8 8 7 8 9 10 11
18 15 13 11 12 12 10 11 11 10 6 4 1 2 3 2 4 3 4 4 4 -0 -5 -5 1 4 6 8 9 8 8 8 8 7 7 7 7 8 8 8 8 8 8 10
16 16 13 13 12 10 9 7 5 3 1 3 2 1 1 2 3 3 3 1 -4 -4 -5 -0 3 6 7 7 8 8 8 8 7 8 7 7 7 8 8 9 9 8 8 8
14 13 13 11 12 10 8 4 2 1 2 0 0 1 2 -0 -1 -2 -5 -4 -7 -4 -0 3 5 5 7 7 8 8 9 9 8 8 8 8 7 7 8 8 9 8 8 8
14 12 11 9 9 8 6 3 3 2 3 3 -0 2 -1 -0 -3 -4 -2 -5 -2 1 3 4 5 5 6 7 8 8 9 8 8 8 8 7 8 8 7 7 8 9 9 9

GFSNW_sfc_30mbdewp_300.txt.gz
Dewpoint
39 40 39 39 39 42 37 33 20 30 27 16 19 16 19 19 17 17 21 20 17 14 15 13 10 8 11 14 17 16 15 17 13 18 21 28 26 26 24 17 12 13 12 9
41 39 40 39 38 40 38 30 27 29 26 18 18 18 16 17 16 16 20 19 18 20 16 15 11 12 14 17 18 19 16 14 10 20 24 25 26 24 25 21 17 14 13 11
41 40 39 40 40 39 38 31 22 20 23 24 22 20 14 14 16 17 19 19 20 20 15 13 15 17 22 20 22 22 23 16 10 9 16 20 17 18 22 24 18 17 15 13
40 41 41 41 40 39 38 32 25 26 18 20 23 21 20 16 17 18 19 18 16 18 15 13 11 15 18 17 21 19 21 13 12 12 12 19 15 16 21 21 19 23 15 15
41 42 41 41 40 40 36 29 28 28 26 24 21 20 17 17 18 19 16 17 17 18 17 17 17 19 18 19 20 20 20 13 15 16 19 11 11 11 11 11 9 13 22 18
42 41 41 41 40 39 35 36 36 30 23 20 18 18 21 20 19 17 17 18 19 17 16 21 21 22 23 24 23 19 19 17 14 14 18 19 6 8 11 8 8 9 7 9
41 41 41 41 39 39 39 35 35 28 19 19 18 20 22 21 19 19 18 19 18 18 23 20 20 24 25 26 24 16 18 18 17 13 19 5 11 13 15 8 8 8 8 9
41 41 40 39 39 39 38 37 35 29 22 20 20 21 22 21 20 19 19 18 20 24 21 13 9 9 9 11 11 11 16 16 15 14 11 12 13 10 8 9 8 9 7 8
41 38 38 38 37 38 37 37 39 34 27 20 23 23 23 21 18 17 18 20 24 24 17 12 10 6 11 7 10 9 7 13 13 13 10 5 7 9 14 13 8 8 7 7
39 39 38 38 37 36 36 36 39 35 28 27 25 23 24 26 22 19 18 20 22 23 16 12 10 9 12 9 9 8 5 6 8 9 9 7 7 10 10 8 6 8 8 8
40 39 38 38 37 36 35 35 38 36 31 28 29 28 26 26 24 19 19 17 16 18 14 15 13 13 13 12 9 7 4 3 5 6 6 4 8 5 2 5 6 7 8 9
40 39 38 38 37 36 34 33 36 40 34 29 31 32 31 31 29 26 25 21 22 20 19 19 19 14 14 13 8 6 5 4 4 6 6 7 12 9 7 7 6 7 8 9
40 38 37 38 37 36 35 36 37 37 31 27 25 22 28 30 32 31 24 21 25 22 24 22 22 17 17 11 6 6 5 4 5 3 7 2 10 7 4 6 6 7 7 8
40 38 38 37 36 36 35 35 38 34 31 23 21 25 25 27 28 29 31 29 27 27 26 25 22 17 15 8 7 3 2 2 -0 0 1 1 10 3 4 6 5 6 7 8
39 38 38 36 35 36 38 38 35 35 29 23 23 26 24 24 20 20 26 27 27 26 23 20 15 15 12 8 4 1 4 2 -0 -1 1 4 3 4 6 6 6 7 8 9
39 39 36 35 37 37 35 30 36 38 37 28 20 24 21 18 16 17 22 27 24 25 20 16 15 17 15 7 2 5 6 7 7 3 5 5 5 5 6 7 7 7 9 9
38 38 35 34 39 38 32 29 35 37 38 29 21 19 19 16 16 17 19 25 20 20 17 14 12 10 11 7 2 5 7 7 6 7 6 3 4 5 6 6 6 7 8 9
38 36 34 35 39 37 34 33 30 37 32 27 18 17 14 13 12 12 17 19 17 14 13 10 9 6 5 1 4 6 7 7 6 7 7 6 6 6 6 6 6 6 6 8
34 33 32 32 28 27 30 33 30 23 25 21 16 13 10 12 11 13 15 16 15 12 6 6 5 2 -1 3 4 5 6 5 5 7 7 6 5 4 5 5 6 6 7 8
33 29 23 24 26 31 29 25 23 15 11 11 12 7 10 10 10 11 11 13 11 9 7 4 2 0 7 7 8 8 8 8 8 4 4 4 3 5 5 5 6 7 8 9
29 26 23 29 24 20 18 17 10 8 9 9 8 8 9 10 8 9 9 9 9 6 5 5 0 -2 3 8 8 9 9 9 8 8 7 7 6 6 5 5 7 8 9 10
31 31 32 22 14 12 9 9 8 10 10 8 8 8 7 7 9 7 9 8 9 3 7 3 -4 1 6 7 8 9 10 9 8 8 7 8 8 8 7 6 6 7 9 11
25 24 22 14 13 11 10 7 10 10 9 6 6 4 3 6 8 6 6 5 3 7 0 -4 -1 3 6 7 8 8 10 10 9 8 8 8 8 8 8 7 8 8 9 10
18 16 12 12 12 11 11 12 12 10 7 4 2 3 3 3 5 4 3 5 4 -1 -5 -5 0 3 5 7 8 8 8 9 8 8 8 8 8 8 9 9 9 8 8 9
17 17 13 13 11 9 8 7 6 3 2 3 2 2 1 3 3 3 3 1 -4 -4 -5 -1 2 4 5 6 6 7 7 8 8 9 8 8 8 8 8 9 9 9 9 9
14 13 12 11 12 10 9 5 3 2 2 1 1 2 2 -0 -1 -2 -5 -4 -7 -4 -2 2 3 3 4 5 6 7 8 8 8 9 8 8 7 7 8 9 9 9 9 8
13 11 10 9 8 7 5 3 4 2 4 3 0 1 -2 0 -2 -5 -3 -6 -3 -0 1 2 3 3 4 5 5 7 7 7 7 8 8 8 8 8 7 7 9 9 10 9

GFSNW_sfc_30mbdewp_303.txt.gz
Dewpoint
41 41 39 40 40 40 35 31 16 27 28 14 15 15 17 15 14 15 15 15 14 15 17 14 13 11 17 19 24 17 14 17 13 16 19 26 32 26 24 14 10 12 10 13
42 41 40 40 39 39 36 31 27 24 22 17 17 17 13 15 15 15 17 15 16 22 18 16 12 18 20 21 23 19 18 17 12 19 24 25 23 22 25 25 15 11 11 18
42 41 41 40 40 39 36 32 21 12 16 19 20 19 15 14 15 17 17 17 18 18 14 12 16 15 19 22 23 21 22 18 16 10 15 19 14 18 23 25 24 16 12 19
41 41 41 41 40 39 34 31 21 24 16 18 22 19 17 15 15 17 16 16 15 17 16 15 11 15 18 16 21 21 21 15 15 17 18 13 13 14 15 17 16 23 19 14
41 41 41 41 40 39 32 26 26 26 23 17 16 16 16 16 18 17 14 14 15 16 16 15 17 17 17 14 20 18 20 15 18 18 15 11 8 10 9 8 8 15 17 15
41 41 40 38 39 39 33 32 35 31 20 13 13 14 18 20 20 17 16 16 16 15 15 18 20 18 21 23 23 17 17 18 15 11 17 19 6 9 10 8 7 9 7 9
41 41 38 38 40 39 38 34 33 29 17 14 14 18 19 19 18 17 17 16 15 16 19 20 15 17 21 25 22 13 14 16 18 15 18 6 8 11 14 9 8 9 8 8
40 41 39 37 39 38 37 37 33 30 20 18 17 18 21 19 17 16 17 17 17 20 21 13 10 5 7 10 9 9 13 16 15 14 8 10 12 9 7 7 8 8 7 7
40 42 40 38 37 38 38 36 35 34 26 17 21 21 22 19 17 16 14 16 20 21 18 13 10 5 7 7 8 8 6 13 15 16 9 5 6 9 14 13 6 8 7 7
41 42 41 39 38 36 37 36 35 33 28 25 25 23 25 24 20 18 16 18 16 16 15 12 8 7 10 6 8 8 6 6 8 10 10 7 8 9 10 7 5 8 8 8
43 42 41 38 38 38 37 37 37 33 30 29 28 25 26 26 23 19 18 17 14 16 13 15 12 11 11 13 10 8 6 5 5 6 6 5 8 5 4 6 7 8 8 9
43 43 41 38 38 37 36 35 36 36 33 29 31 31 29 29 28 26 24 20 18 20 18 18 17 14 15 14 8 8 8 5 6 7 7 7 10 8 7 8 7 7 8 8
43 43 40 38 38 36 36 36 36 36 32 28 27 23 27 29 30 30 24 16 19 22 27 22 19 16 16 12 10 8 8 4 6 4 8 2 8 11 4 6 7 6 6 7
43 42 40 39 37 35 36 35 37 35 31 23 22 25 24 27 29 29 28 25 24 25 28 22 22 18 15 11 8 5 2 1 0 1 1 2 8 4 4 5 5 6 6 7
43 41 39 39 37 37 38 39 37 36 29 23 23 25 26 25 21 17 19 25 25 25 24 22 19 16 15 10 5 3 3 4 2 0 2 4 4 4 5 6 6 6 7 9
42 40 39 36 35 38 36 30 35 38 37 28 21 27 23 19 15 16 19 24 23 24 22 18 17 18 16 10 4 4 4 4 5 4 5 5 5 6 7 7 7 7 9 9
40 39 37 35 35 39 32 29 34 37 37 29 22 21 22 15 16 18 19 23 21 20 19 16 15 12 14 9 3 4 5 5 5 6 7 4 5 6 7 8 7 8 8 9
39 38 34 33 38 36 34 33 30 37 33 30 20 18 19 15 14 12 20 20 20 16 15 14 11 10 10 1 4 6 7 7 8 8 8 8 8 8 7 8 8 7 6 8
37 33 33 34 30 28 30 33 32 26 26 23 20 16 14 15 15 14 17 18 16 16 11 8 10 5 -1 3 4 5 7 7 6 7 8 9 7 6 6 6 6 6 6 8
33 29 24 26 28 31 28 29 27 22 19 18 15 13 14 12 12 13 13 16 13 11 7 9 4 0 7 8 9 9 9 9 9 5 4 5 4 6 6 6 7 7 8 9
30 28 26 30 26 23 24 20 17 15 14 14 12 11 10 12 9 9 12 9 11 8 6 7 1 -1 3 8 8 10 10 10 9 9 9 9 8 7 7 7 7 8 8 9
31 29 31 27 21 19 14 13 14 14 12 12 11 11 9 9 11 8 11 8 10 4 9 3 -3 1 6 7 7 9 10 10 9 10 9 9 9 9 8 8 8 8 9 10
28 26 23 19 19 13 13 5 12 12 12 10 9 7 7 9 10 8 7 6 4 8 1 -3 -1 3 4 6 7 7 9 10 10 9 10 10 9 9 9 8 9 9 9 10
22 18 14 15 15 14 14 14 14 11 10 7 6 7 6 7 6 6 3 6 6 0 -4 -4 0 3 4 6 7 6 6 8 8 9 9 9 8 9 10 10 10 10 9 10
20 20 15 15 13 12 11 11 10 7 6 6 7 6 5 5 4 4 4 1 -4 -4 -5 -2 2 3 4 4 5 5 6 6 7 9 8 8 8 8 9 10 10 10 9 9
18 14 15 13 15 13 11 7 7 6 6 5 6 5 4 1 1 -1 -3 -3 -7 -5 -2 2 2 2 3 3 4 5 6 7 7 8 8 9 8 8 8 10 10 10 10 9
15 12 12 12 10 7 6 5 5 5 7 5 5 1 -2 3 -1 -5 -3 -7 -3 -1 1 2 3 2 3 3 3 4 5 6 6 7 8 9 9 9 9 7 9 11 10 10

GFSNW_sfc_30mbdewp_306.txt.gz
Dewpoint
42 42 40 40 41 41 37 31 22 26 28 18 17 17 19 16 15 16 16 15 15 19 18 18 14 17 22 23 23 21 18 19 13 14 22 28 26 22 24 17 16 13 11 20
42 41 40 40 40 39 38 32 28 26 22 16 18 19 18 16 15 16 17 16 17 18 16 16 17 17 19 24 25 21 23 17 11 13 22 21 20 18 20 25 17 12 9 15
42 42 40 40 39 38 38 32 24 18 19 19 19 19 18 16 17 17 17 16 16 16 16 16 13 15 19 23 24 21 22 20 16 11 12 17 12 14 16 27 24 15 11 13
39 41 40 38 38 39 37 30 23 24 19 20 19 16 21 17 17 19 18 16 17 15 15 19 15 17 18 20 20 23 21 15 18 16 12 12 11 11 11 12 10 17 17 9
41 41 40 40 38 38 31 26 26 27 25 20 14 15 17 19 21 20 17 16 15 15 14 15 15 17 18 19 21 21 17 15 18 14 14 7 6 8 8 8 6 9 15 12
44 41 42 41 39 39 33 33 33 31 23 17 14 15 18 19 20 19 16 16 15 15 14 16 19 20 19 19 22 16 14 16 16 12 16 17 3 7 9 8 7 7 2 7
46 42 42 41 39 39 38 36 34 28 19 19 17 18 19 20 19 18 16 16 15 16 19 21 17 15 16 20 22 13 12 14 19 15 15 3 7 8 10 8 7 7 7 8
46 44 43 41 39 38 38 38 34 29 21 20 20 21 20 21 20 17 17 16 17 19 19 18 11 7 8 9 11 9 13 15 14 13 6 8 9 9 7 6 5 8 6 6
46 45 44 43 40 38 38 38 37 33 26 19 21 21 23 22 20 18 16 18 19 17 17 17 8 8 8 7 11 11 8 10 12 14 9 4 6 8 14 13 4 7 8 7
47 45 44 43 42 39 38 38 38 35 27 25 25 26 24 27 22 20 19 20 18 16 16 13 11 6 10 6 10 8 6 4 5 8 8 4 7 8 10 5 3 8 9 8
47 47 44 43 42 39 38 36 37 35 29 27 26 28 25 28 27 22 20 20 18 18 15 16 13 12 12 14 10 7 6 5 6 4 3 3 9 5 1 5 9 8 9 9
47 47 45 43 41 40 37 33 35 36 33 29 31 31 30 29 27 27 23 21 18 19 17 17 18 12 15 13 10 9 7 3 3 4 5 7 8 8 12 8 7 8 9 9
47 48 45 43 41 40 37 35 36 35 30 28 28 25 28 30 29 29 24 20 23 20 23 23 19 16 18 13 9 8 7 5 7 3 3 2 10 11 6 6 7 7 7 8
47 47 44 42 41 36 35 36 36 35 30 23 23 25 24 27 29 30 28 25 21 23 25 23 20 18 17 12 9 6 4 3 2 1 2 6 4 5 6 8 6 7 8 8
47 45 43 41 38 35 38 38 37 36 30 22 23 26 25 25 23 17 17 20 22 23 23 22 19 16 15 10 11 4 5 5 4 3 4 4 5 6 9 7 7 8 9 9
45 42 41 39 35 35 36 31 36 38 35 28 20 27 23 19 16 16 17 22 23 23 23 20 18 19 16 11 4 7 8 9 8 7 7 6 6 7 7 8 8 8 10 9
42 41 38 34 35 37 32 29 32 34 36 28 22 21 22 15 16 20 20 21 22 21 21 16 15 12 15 7 0 7 9 9 10 11 7 3 6 7 9 9 8 8 7 7
40 37 33 36 38 36 34 33 30 33 33 30 21 17 21 17 16 13 20 20 22 16 16 15 12 11 7 -1 4 7 8 8 9 8 9 9 10 10 9 8 7 5 5 6
36 32 34 34 31 30 30 31 34 28 25 23 20 15 14 16 16 15 18 18 15 17 12 9 11 3 -3 3 5 6 7 7 7 8 7 9 8 8 7 7 5 5 5 6
32 31 26 25 28 31 28 30 28 21 19 18 15 15 14 10 11 12 11 17 13 9 7 11 2 1 6 7 8 9 9 9 9 5 3 5 4 6 7 7 7 7 7 7
30 27 25 29 30 24 24 18 16 15 14 13 13 10 8 13 8 8 11 7 9 6 5 6 2 -2 3 7 7 9 10 10 10 10 9 9 8 7 7 6 7 8 7 7
31 30 31 29 23 20 16 12 15 12 10 12 10 10 10 10 11 9 11 7 10 1 11 3 -3 0 4 5 6 7 8 9 9 10 9 9 9 9 8 8 8 8 9 9
29 26 23 20 19 11 12 9 11 11 9 11 8 5 8 9 11 6 7 5 3 10 2 -3 -2 2 3 4 5 4 7 7 8 8 9 9 9 9 9 8 9 9 9 9
21 18 14 15 12 11 10 10 9 9 7 5 6 6 6 7 5 7 2 7 7 1 -4 -6 -1 2 3 4 4 4 4 6 6 7 8 8 8 8 9 10 10 9 8 9
18 18 13 12 12 11 11 10 11 7 7 6 3 5 5 6 4 5 4 1 -5 -5 -7 -2 2 3 2 3 2 3 3 4 5 6 7 7 8 7 7 9 10 10 9 8
13 11 13 11 14 7 6 6 5 7 6 7 5 5 4 0 2 -3 -5 -4 -10 -6 -3 2 3 2 1 1 2 3 4 4 6 5 6 7 8 7 8 9 10 10 10 9
11 10 9 10 10 6 6 5 4 4 7 3 5 -3 -3 3 -1 -6 -4 -9 -5 -1 0 1 3 2 2 2 2 2 3 3 5 5 5 7 9 8 8 7 9 11 11 11